Find Starlink 5927

NORAD ID: 55934 Int'l Des: 2023-037 Owner: SPXS Country: US Constellation: starlink operational
LEOCIRCULAR

当前视图

正在加载3D地球...

About Starlink 5927

Starlink 5927 (NORAD 55934) is a starlink constellation satellite (v1.5) launched Mar 17, 2023 by SPXS of US. It operates in LEO, CIRCULAR orbit with a mass of 305.00 kg.

关于 Starlink 5927

正在加载描述...

即将过境

Passes for default location (London). Set your location on the main map for personalized predictions.

高度历史

Loading altitude history...

两行轨道根数

1 55934U 23037W 26168.84353781 -.00000740 00000-0 -54216-4 0 9998
2 55934 69.9996 31.8813 0003046 273.5609 86.5202 14.98319997178981
Epoch: Jun 17, 2026 • Age: 15 hours

当前状态

高度 581.0 km
速度 7.57 km/s
星下点 -27.91°S, 140.63°E
发射日期 Mar 17, 2023
运行时间 3.2 years
类型 internet

技术详情

分类 Payload
质量 305.00 kg
干质量 290.00 kg
总质量 305.00 kg
长度 0.20 m
直径 2.80 m
跨度 9.00 m
形状 Box + pan
制造商 SPXS
平台类型 Starlink
阶段状态 In Orbit
所有者/国家 SPXS/US

Most Searched